| time (UTC) | temp C | wind direction | speed KPH | gust KPH | rain 1hr cm | rain 24hr cm | rain mn cm | humidity % | barometer mb |
| 20260505041504 | 8 | 44 | 0.0 | 3.2 | 0.30 | 1.14 | 0.71 | 92 | 1013.0 |
| 20260505040059 | 8 | 44 | 0.0 | 3.2 | 0.30 | 1.09 | 0.66 | 92 | 1013.2 |
| 20260505034520 | 9 | 44 | 0.0 | 1.6 | 0.33 | 0.99 | 0.58 | 92 | 1013.4 |
| 20260505033025 | 9 | 44 | 0.0 | 3.2 | 0.28 | 0.89 | 0.48 | 92 | 1013.5 |
| 20260505031507 | 9 | 44 | 0.0 | 3.2 | 0.28 | 0.84 | 0.43 | 92 | 1013.6 |
| 20260505030057 | 9 | 44 | 1.6 | 3.2 | 0.25 | 0.79 | 0.36 | 92 | 1013.6 |
| 20260505024548 | 9 | 44 | 0.0 | 1.6 | 0.20 | 0.69 | 0.25 | 92 | 1013.9 |
| 20260505023021 | 9 | 44 | 0.0 | 1.6 | 0.15 | 0.61 | 0.20 | 92 | 1014.0 |
| 20260505021533 | 9 | 44 | 0.0 | 3.2 | 0.08 | 0.56 | 0.15 | 92 | 1014.0 |
| 20260505020058 | 9 | 44 | 0.0 | 3.2 | 0.05 | 0.51 | 0.10 | 92 | 1013.9 |
| 20260505014535 | 9 | 44 | 0.0 | 3.2 | 0.03 | 0.48 | 0.05 | 92 | 1013.9 |
| 20260505013103 | 9 | 44 | 0.0 | 3.2 | 0.03 | 0.48 | 0.05 | 92 | 1013.9 |
| 20260505011558 | 9 | 44 | 0.0 | 1.6 | 0.03 | 0.48 | 0.05 | 92 | 1014.0 |
| 20260505010049 | 9 | 44 | 1.6 | 4.8 | 0.05 | 0.48 | 0.05 | 92 | 1014.2 |
| 20260505004544 | 9 | 44 | 1.6 | 4.8 | 0.03 | 0.46 | 0.05 | 92 | 1014.6 |
| 20260505003035 | 9 | 24 | 0.0 | 4.8 | 0.03 | 0.46 | 0.05 | 92 | 1015.1 |
| 20260505001532 | 9 | 53 | 0.0 | 3.2 | 0.03 | 0.46 | 0.05 | 92 | 1015.5 |
| 20260505000058 | 9 | 53 | 1.6 | 4.8 | 0.00 | 0.43 | 0.03 | 92 | 1015.6 |
| 20260504234548 | 9 | 53 | 0.0 | 3.2 | 0.00 | 0.43 | 0.03 | 92 | 1016.1 |
| 20260504233020 | 9 | 55 | 1.6 | 4.8 | 0.03 | 0.43 | 0.03 | 92 | 1016.2 |
| 20260504231516 | 9 | 55 | 1.6 | 6.4 | 0.03 | 0.43 | 0.03 | 92 | 1016.3 |
| 20260504230010 | 9 | 59 | 1.6 | 6.4 | 0.03 | 0.43 | 0.03 | 92 | 1016.5 |
| 20260504224526 | 9 | 67 | 1.6 | 6.4 | 0.03 | 0.43 | 0.03 | 92 | 1016.7 |
| 20260504223056 | 9 | 68 | 0.0 | 4.8 | 0.00 | 0.43 | 0.00 | 92 | 1016.6 |
| 20260504221553 | 9 | 74 | 3.2 | 6.4 | 0.00 | 0.43 | 0.00 | 91 | 1016.7 |
| 20260504214543 | 9 | 62 | 1.6 | 4.8 | 0.03 | 0.43 | 0.43 | 91 | 1017.0 |
| 20260504213040 | 9 | 49 | 3.2 | 6.4 | 0.03 | 0.43 | 0.43 | 91 | 1017.2 |
| 20260504211539 | 9 | 40 | 1.6 | 4.8 | 0.05 | 0.43 | 0.43 | 91 | 1017.4 |
| 20260504210035 | 9 | 19 | 0.0 | 3.2 | 0.05 | 0.41 | 0.41 | 91 | 1017.5 |
| 20260504204548 | 9 | 19 | 1.6 | 4.8 | 0.05 | 0.41 | 0.41 | 91 | 1017.5 |
| 20260504203033 | 9 | 18 | 1.6 | 6.4 | 0.08 | 0.41 | 0.41 | 91 | 1017.6 |
| 20260504201531 | 9 | 150 | 0.0 | 3.2 | 0.10 | 0.38 | 0.38 | 90 | 1017.8 |
| 20260504200026 | 9 | 150 | 0.0 | 4.8 | 0.13 | 0.36 | 0.36 | 90 | 1017.5 |
| 20260504194524 | 10 | 159 | 1.6 | 4.8 | 0.13 | 0.33 | 0.33 | 90 | 1017.4 |
| 20260504193021 | 10 | 170 | 0.0 | 4.8 | 0.10 | 0.33 | 0.33 | 89 | 1017.2 |
| 20260504191521 | 10 | 257 | 0.0 | 3.2 | 0.05 | 0.25 | 0.25 | 88 | 1017.0 |
| 20260504190019 | 10 | 360 | 0.0 | 4.8 | 0.05 | 0.23 | 0.23 | 88 | 1016.9 |
| 20260504184522 | 10 | 61 | 1.6 | 4.8 | 0.03 | 0.23 | 0.23 | 88 | 1016.8 |
| 20260504183012 | 10 | 61 | 0.0 | 4.8 | 0.05 | 0.23 | 0.23 | 88 | 1016.6 |
| 20260504181510 | 11 | 51 | 3.2 | 6.4 | 0.05 | 0.20 | 0.20 | 88 | 1016.7 |
| 20260504180010 | 11 | 301 | 0.0 | 4.8 | 0.08 | 0.20 | 0.20 | 87 | 1016.8 |
| 20260504174538 | 11 | 301 | 1.6 | 3.2 | 0.13 | 0.20 | 0.20 | 86 | 1016.9 |
| 20260504173038 | 12 | 301 | 0.0 | 3.2 | 0.13 | 0.18 | 0.18 | 85 | 1016.8 |
| 20260504171533 | 12 | 302 | 0.0 | 3.2 | 0.10 | 0.15 | 0.15 | 83 | 1016.8 |
| 20260504100104 | 14 | 165 | 0.0 | 9.7 | 0.00 | 0.00 | 0.00 | 69 | 1017.2 |
| 20260504081513 | 14 | 199 | 1.6 | 6.4 | 0.00 | 0.00 | 0.00 | 78 | 1016.8 |